Tracking 25534 objects as of 28-Jan-2022
HD Live streaming from Space Station
objects crossing your sky now

GALILEO 27 (223)

Track GALILEO 27 (223) now!
GALILEO 27 (223) is classified as:


NORAD ID: 49809
Int'l Code: 2021-117A
Perigee: 23,389.2 km
Apogee: 23,524.9 km
Inclination: 57.1 °
Period: 854.5 minutes
Semi major axis: 29828 km
RCS: Unknown
Launch date: December 5, 2021
Source: France (FR)
Launch site: FRENCH GUIANA (FRGUI)
aabbcc
Your satellite tracking list
Your tracking list is empty




NASA's NSSDC Master Catalog

Two Line Element Set (TLE):
1 49809U 21116A   22008.22772889 -.00000085  00000-0  00000-0 0  9992
2 49809  57.1187  25.4353 0022745  79.5494 282.3768  1.68525270   575
Source of the keplerian elements: AFSPC